• In Kazakhstan
  • List of Countries
  • For 7 days
  • Water Temperature
  • Satellite Maps
  • Weather Map
  • News
  • Weather Widgets
  • user-avatar
    Login

    Hourly Weather Igls

    Today, 27 June, Thursday

    Time Temperature Precipitation Wind Pressure Humidity
    00:00 +22°C° 0 mm 1 mps 692 mmHg 67%
    01:00 +22°C° 0 mm 1 mps 692 mmHg 66%
    02:00 +21°C° 0 mm 1 mps 692 mmHg 65%
    03:00 +21°C° 0 mm 1 mps 691 mmHg 65%
    04:00 +21°C° 0 mm 1 mps 691 mmHg 64%
    05:00 +23°C° 0 mm 1 mps 692 mmHg 60%
    06:00 +25°C° 0 mm 1 mps 692 mmHg 56%
    07:00 +27°C° 0 mm 1 mps 692 mmHg 53%
    08:00 +29°C° 0 mm 1 mps 693 mmHg 46%
    09:00 +31°C° 0 mm 1 mps 693 mmHg 40%
    10:00 +33°C° 0 mm 1 mps 693 mmHg 33%
    11:00 +35°C° 0 mm 2 mps 693 mmHg 32%
    12:00 +35°C° 0 mm 2 mps 693 mmHg 31%
    13:00 +35°C° 0 mm 3 mps 693 mmHg 30%
    14:00 +35°C° 0.1 mm 3 mps 692 mmHg 35%
    15:00 +34°C° 0.1 mm 3 mps 692 mmHg 40%
    16:00 +33°C° 0.1 mm 3 mps 691 mmHg 45%
    17:00 +30°C° 0.6 mm 3 mps 691 mmHg 57%
    18:00 +28°C° 0.6 mm 2 mps 690 mmHg 70%
    19:00 +26°C° 0.6 mm 2 mps 690 mmHg 82%
    20:00 +24°C° 0.3 mm 1 mps 690 mmHg 86%
    21:00 +23°C° 0.3 mm 1 mps 690 mmHg 89%
    22:00 +21°C° 0.3 mm 1 mps 690 mmHg 93%
    23:00 +20°C° 0 mm 1 mps 690 mmHg 94%

    Tomorrow, 28 June, Friday

    Time Temperature Precipitation Wind Pressure Humidity
    00:00 +20°C° 0 mm 1 mps 690 mmHg 94%
    01:00 +19°C° 0 mm 1 mps 690 mmHg 95%
    02:00 +19°C° 0 mm 1 mps 690 mmHg 95%
    03:00 +19°C° 0 mm 1 mps 689 mmHg 95%
    04:00 +18°C° 0 mm 1 mps 689 mmHg 96%
    05:00 +20°C° 0 mm 1 mps 689 mmHg 93%
    06:00 +21°C° 0 mm 1 mps 690 mmHg 90%
    07:00 +23°C° 0 mm 1 mps 690 mmHg 87%
    08:00 +25°C° 0 mm 1 mps 690 mmHg 78%
    09:00 +26°C° 0 mm 1 mps 690 mmHg 68%
    10:00 +28°C° 0 mm 2 mps 690 mmHg 58%
    11:00 +29°C° 0 mm 2 mps 690 mmHg 53%
    12:00 +29°C° 0 mm 2 mps 690 mmHg 47%
    13:00 +30°C° 0 mm 3 mps 690 mmHg 42%
    14:00 +30°C° 0 mm 3 mps 690 mmHg 42%
    15:00 +29°C° 0 mm 3 mps 689 mmHg 43%
    16:00 +29°C° 0 mm 3 mps 689 mmHg 44%
    17:00 +27°C° 0 mm 3 mps 689 mmHg 51%
    18:00 +26°C° 0 mm 2 mps 689 mmHg 58%
    19:00 +24°C° 0 mm 2 mps 689 mmHg 65%
    20:00 +22°C° 0 mm 1 mps 689 mmHg 73%
    21:00 +20°C° 0 mm 1 mps 688 mmHg 81%
    22:00 +18°C° 0 mm 1 mps 688 mmHg 89%
    23:00 +15°C° 0 mm 0 mps 688 mmHg 89%

    Day after tomorrow, 29 June, Saturday

    Time Temperature Precipitation Wind Pressure Humidity
    00:00 +15°C° 0 mm 0 mps 688 mmHg 89%
    01:00 +15°C° 0 mm 0 mps 688 mmHg 88%
    02:00 +14°C° 0 mm 0 mps 688 mmHg 87%
    03:00 +14°C° 0 mm 0 mps 688 mmHg 85%
    04:00 +15°C° 0 mm 1 mps 687 mmHg 84%
    05:00 +16°C° 0 mm 0 mps 688 mmHg 76%
    06:00 +19°C° 0 mm 0 mps 688 mmHg 68%
    07:00 +21°C° 0 mm 0 mps 689 mmHg 60%
    08:00 +24°C° 0 mm 0 mps 689 mmHg 52%
    09:00 +28°C° 0 mm 1 mps 689 mmHg 44%
    10:00 +30°C° 0 mm 1 mps 690 mmHg 35%
    11:00 +31°C° 0 mm 1 mps 690 mmHg 33%
    12:00 +32°C° 0 mm 1 mps 690 mmHg 31%
    13:00 +32°C° 0 mm 2 mps 689 mmHg 28%
    14:00 +32°C° 0 mm 2 mps 689 mmHg 30%
    15:00 +32°C° 0 mm 2 mps 689 mmHg 32%
    16:00 +32°C° 0 mm 2 mps 689 mmHg 34%
    17:00 +30°C° 0 mm 2 mps 689 mmHg 45%
    18:00 +28°C° 0 mm 1 mps 689 mmHg 57%
    19:00 +26°C° 0 mm 1 mps 688 mmHg 68%
    20:00 +25°C° 0 mm 1 mps 688 mmHg 72%
    21:00 +23°C° 0 mm 1 mps 688 mmHg 77%
    22:00 +21°C° 0 mm 1 mps 688 mmHg 82%
    23:00 +21°C° 0 mm 1 mps 688 mmHg 83%

    30 June, Sunday

    Time Temperature Precipitation Wind Pressure Humidity
    00:00 +21°C° 0 mm 1 mps 688 mmHg 85%
    01:00 +20°C° 0 mm 2 mps 688 mmHg 86%
    02:00 +19°C° 0 mm 2 mps 688 mmHg 86%
    03:00 +20°C° 0 mm 1 mps 688 mmHg 85%
    04:00 +20°C° 0 mm 1 mps 688 mmHg 85%
    05:00 +22°C° 0 mm 1 mps 688 mmHg 79%
    06:00 +24°C° 0 mm 1 mps 688 mmHg 73%
    07:00 +24°C° 0 mm 0 mps 689 mmHg 67%
    08:00 +28°C° 0 mm 1 mps 689 mmHg 58%
    09:00 +30°C° 0 mm 1 mps 690 mmHg 50%
    10:00 +32°C° 0 mm 1 mps 690 mmHg 41%
    11:00 +33°C° 0 mm 1 mps 690 mmHg 37%
    12:00 +34°C° 0 mm 2 mps 690 mmHg 34%
    13:00 +35°C° 0 mm 2 mps 690 mmHg 30%
    14:00 +35°C° 0 mm 2 mps 690 mmHg 31%
    15:00 +34°C° 0 mm 2 mps 690 mmHg 32%
    16:00 +34°C° 0 mm 3 mps 690 mmHg 34%
    17:00 +31°C° 0 mm 2 mps 690 mmHg 43%
    18:00 +29°C° 0 mm 2 mps 690 mmHg 52%
    19:00 +28°C° 0 mm 1 mps 690 mmHg 61%
    20:00 +26°C° 0 mm 1 mps 689 mmHg 65%
    21:00 +23°C° 0 mm 1 mps 689 mmHg 70%
    22:00 +21°C° 0 mm 1 mps 689 mmHg 74%
    23:00 +21°C° 0 mm 1 mps 689 mmHg 73%

    1 July, Monday

    Time Temperature Precipitation Wind Pressure Humidity
    00:00 +21°C° 0 mm 1 mps 689 mmHg 73%
    01:00 +20°C° 0 mm 1 mps 689 mmHg 73%
    02:00 +20°C° 0 mm 1 mps 689 mmHg 70%
    03:00 +20°C° 0 mm 1 mps 688 mmHg 67%
    04:00 +20°C° 0 mm 1 mps 688 mmHg 64%
    05:00 +22°C° 0 mm 1 mps 689 mmHg 58%
    06:00 +24°C° 0 mm 1 mps 689 mmHg 53%
    07:00 +27°C° 0 mm 1 mps 690 mmHg 47%
    08:00 +29°C° 0 mm 1 mps 690 mmHg 41%
    09:00 +31°C° 0 mm 1 mps 690 mmHg 35%
    10:00 +33°C° 0 mm 1 mps 691 mmHg 28%
    11:00 +34°C° 0 mm 1 mps 690 mmHg 26%
    12:00 +35°C° 0 mm 1 mps 690 mmHg 25%
    13:00 +35°C° 0 mm 1 mps 690 mmHg 23%
    14:00 +36°C° 0.1 mm 2 mps 690 mmHg 27%
    15:00 +35°C° 0.1 mm 2 mps 690 mmHg 31%
    16:00 +34°C° 0.1 mm 3 mps 689 mmHg 35%
    17:00 +29°C° 2 mm 2 mps 689 mmHg 53%
    18:00 +25°C° 2 mm 2 mps 688 mmHg 71%
    19:00 +20°C° 2 mm 2 mps 688 mmHg 89%
    20:00 +20°C° 1 mm 2 mps 688 mmHg 89%
    21:00 +19°C° 1 mm 2 mps 689 mmHg 88%
    22:00 +19°C° 1 mm 2 mps 689 mmHg 88%
    23:00 +19°C° 0.3 mm 2 mps 689 mmHg 87%

    2 July, Tuesday

    Time Temperature Precipitation Wind Pressure Humidity
    00:00 +19°C° 0.3 mm 2 mps 689 mmHg 87%
    01:00 +19°C° 0.3 mm 2 mps 689 mmHg 86%
    02:00 +18°C° 0 mm 2 mps 688 mmHg 85%
    03:00 +19°C° 0 mm 1 mps 688 mmHg 83%
    04:00 +19°C° 0 mm 1 mps 687 mmHg 81%
    05:00 +20°C° 0 mm 1 mps 688 mmHg 77%
    06:00 +22°C° 0 mm 1 mps 688 mmHg 73%
    07:00 +23°C° 0 mm 1 mps 689 mmHg 70%
    08:00 +25°C° 0.1 mm 1 mps 689 mmHg 62%
    09:00 +27°C° 0.1 mm 1 mps 689 mmHg 55%
    10:00 +29°C° 0.1 mm 1 mps 690 mmHg 48%
    11:00 +29°C° 0.5 mm 2 mps 689 mmHg 48%
    12:00 +29°C° 0.5 mm 2 mps 689 mmHg 48%
    13:00 +30°C° 0.5 mm 2 mps 689 mmHg 48%
    14:00 +29°C° 1.5 mm 2 mps 689 mmHg 56%
    15:00 +28°C° 1.5 mm 2 mps 689 mmHg 64%
    16:00 +26°C° 1.5 mm 2 mps 688 mmHg 72%
    17:00 +25°C° 1.4 mm 1 mps 688 mmHg 78%
    18:00 +24°C° 1.4 mm 1 mps 688 mmHg 83%
    19:00 +23°C° 1.4 mm 1 mps 688 mmHg 89%
    20:00 +22°C° 0.5 mm 1 mps 688 mmHg 90%
    21:00 +21°C° 0.5 mm 1 mps 688 mmHg 90%
    22:00 +19°C° 0.5 mm 1 mps 688 mmHg 91%
    23:00 +19°C° 0 mm 1 mps 688 mmHg 90%
    Show more